User: anonymous   Login
Location: Unspecified
(0.0000°N, 0.0000°E)
Time: 06:22:00
(UTC+00:00)
Language:

NOSS 3-4 (C) - Orbit

View from above orbital plane
View from above orbital plane
View from above satellite
View from above satellite

Ground track
Ground track

The orbit data is extracted from the following two-line orbital elements,

1 31708U 07027C   18262.01766072 0.00000000  00000-0  00000-0 0    06
2 31708  63.4049 353.6569 0230000  21.5405 338.4595 13.40756692    06
Epoch (UTC): 19 September 2018 00:25:25
Eccentricity: 0.0230000
inclination: 63.4049°
perigee height: 934 km
apogee height: 1278 km
right ascension of ascending node: 353.6569°
argument of perigee: 21.5405°
revolutions per day: 13.40756692
mean anomaly at epoch: 338.4595°
orbit number at epoch: 0

The dashed part of the orbit path shows where the satellite is in the earth's shadow,  

DLR